When you browse on this site, cookies collect data to enhance your experience and personalize the content and advertising you see.
Visit our Privacy Policy to learn more. By continuing to use the site, you agree to this use of cookies and data.

Hourly Weather Pochinino

Today, 15 August, Saturday

Time Temperature Precipitation Wind Pressure Humidity
00:00 +9°C° 0 mm 2 mps 745 mmHg 84%
01:00 +9°C° 0 mm 2 mps 745 mmHg 85%
02:00 +9°C° 0 mm 3 mps 745 mmHg 89%
03:00 +9°C° 0 mm 3 mps 745 mmHg 90%
04:00 +9°C° 0 mm 3 mps 745 mmHg 91%
05:00 +9°C° 0 mm 3 mps 745 mmHg 92%
06:00 +10°C° 0 mm 3 mps 745 mmHg 85%
07:00 +12°C° 0 mm 3 mps 745 mmHg 79%
08:00 +14°C° 0 mm 3 mps 745 mmHg 72%
09:00 +15°C° 0 mm 4 mps 745 mmHg 67%
10:00 +17°C° 0 mm 4 mps 745 mmHg 63%
11:00 +18°C° 0 mm 4 mps 745 mmHg 58%
12:00 +19°C° 0 mm 4 mps 745 mmHg 58%
13:00 +19°C° 0 mm 4 mps 745 mmHg 58%
14:00 +19°C° 0 mm 4 mps 745 mmHg 58%
15:00 +19°C° 0 mm 3 mps 745 mmHg 61%
16:00 +18°C° 0 mm 3 mps 745 mmHg 65%
17:00 +18°C° 0 mm 3 mps 744 mmHg 68%
18:00 +17°C° 0.1 mm 2 mps 744 mmHg 72%
19:00 +16°C° 0.1 mm 2 mps 744 mmHg 76%
20:00 +14°C° 0.1 mm 2 mps 744 mmHg 79%
21:00 +14°C° 0.1 mm 2 mps 744 mmHg 81%
22:00 +14°C° 0.1 mm 2 mps 744 mmHg 84%
23:00 +14°C° 0.1 mm 2 mps 744 mmHg 86%

Tomorrow, 16 August, Sunday

Time Temperature Precipitation Wind Pressure Humidity
00:00 +14°C° 0 mm 2 mps 744 mmHg 88%
01:00 +13°C° 0 mm 2 mps 744 mmHg 90%
02:00 +13°C° 0 mm 2 mps 744 mmHg 91%
03:00 +13°C° 0 mm 2 mps 743 mmHg 93%
04:00 +13°C° 0 mm 1 mps 743 mmHg 94%
05:00 +12°C° 0 mm 1 mps 743 mmHg 96%
06:00 +14°C° 0 mm 1 mps 743 mmHg 91%
07:00 +15°C° 0 mm 1 mps 743 mmHg 86%
08:00 +18°C° 0 mm 1 mps 743 mmHg 81%
09:00 +18°C° 0 mm 2 mps 743 mmHg 76%
10:00 +19°C° 0 mm 2 mps 743 mmHg 71%
11:00 +20°C° 0 mm 2 mps 743 mmHg 66%
12:00 +20°C° 0.1 mm 2 mps 743 mmHg 65%
13:00 +21°C° 0.1 mm 2 mps 743 mmHg 64%
14:00 +21°C° 0.1 mm 2 mps 742 mmHg 63%
15:00 +21°C° 0.1 mm 2 mps 742 mmHg 66%
16:00 +21°C° 0.1 mm 2 mps 742 mmHg 69%
17:00 +21°C° 0.1 mm 2 mps 742 mmHg 71%
18:00 +20°C° 0 mm 2 mps 742 mmHg 77%
19:00 +18°C° 0 mm 2 mps 742 mmHg 83%
20:00 +17°C° 0 mm 2 mps 742 mmHg 89%
21:00 +17°C° 0 mm 3 mps 742 mmHg 90%
22:00 +16°C° 0 mm 3 mps 742 mmHg 92%
23:00 +16°C° 0 mm 3 mps 742 mmHg 94%

Day after tomorrow, 17 August, Monday

Time Temperature Precipitation Wind Pressure Humidity
00:00 +16°C° 0 mm 3 mps 741 mmHg 94%
01:00 +16°C° 0 mm 3 mps 741 mmHg 94%
02:00 +14°C° 0 mm 3 mps 741 mmHg 94%
03:00 +14°C° 0 mm 3 mps 741 mmHg 94%
04:00 +14°C° 0 mm 3 mps 741 mmHg 94%
05:00 +14°C° 0 mm 3 mps 741 mmHg 94%
06:00 +17°C° 0 mm 3 mps 741 mmHg 88%
07:00 +19°C° 0 mm 4 mps 742 mmHg 82%
08:00 +20°C° 0 mm 4 mps 742 mmHg 76%
09:00 +21°C° 0.3 mm 4 mps 742 mmHg 72%
10:00 +22°C° 0.3 mm 4 mps 741 mmHg 68%
11:00 +23°C° 0.3 mm 5 mps 741 mmHg 64%
12:00 +25°C° 0.4 mm 5 mps 741 mmHg 64%
13:00 +25°C° 0.4 mm 5 mps 741 mmHg 63%
14:00 +25°C° 0.4 mm 5 mps 741 mmHg 63%
15:00 +25°C° 0.3 mm 4 mps 741 mmHg 66%
16:00 +25°C° 0.3 mm 4 mps 740 mmHg 68%
17:00 +25°C° 0.3 mm 3 mps 740 mmHg 71%
18:00 +22°C° 0.1 mm 3 mps 740 mmHg 76%
19:00 +20°C° 0.1 mm 3 mps 740 mmHg 80%
20:00 +19°C° 0.1 mm 3 mps 740 mmHg 85%
21:00 +18°C° 0 mm 3 mps 741 mmHg 87%
22:00 +18°C° 0 mm 3 mps 741 mmHg 88%
23:00 +17°C° 0 mm 3 mps 741 mmHg 89%

18 August, Tuesday

Time Temperature Precipitation Wind Pressure Humidity
00:00 +17°C° 0 mm 3 mps 741 mmHg 91%
01:00 +17°C° 0 mm 3 mps 741 mmHg 92%
02:00 +16°C° 0 mm 2 mps 741 mmHg 94%
03:00 +16°C° 0 mm 2 mps 741 mmHg 94%
04:00 +16°C° 0 mm 2 mps 741 mmHg 94%
05:00 +15°C° 0 mm 1 mps 741 mmHg 94%
06:00 +18°C° 0 mm 1 mps 741 mmHg 88%
07:00 +19°C° 0 mm 1 mps 741 mmHg 83%
08:00 +21°C° 0 mm 1 mps 741 mmHg 77%
09:00 +22°C° 0 mm 1 mps 741 mmHg 72%
10:00 +23°C° 0 mm 2 mps 741 mmHg 68%
11:00 +24°C° 0 mm 2 mps 741 mmHg 63%
12:00 +25°C° 0 mm 2 mps 741 mmHg 60%
13:00 +25°C° 0 mm 2 mps 741 mmHg 57%
14:00 +25°C° 0 mm 2 mps 740 mmHg 53%
15:00 +25°C° 0 mm 2 mps 740 mmHg 57%
16:00 +24°C° 0 mm 2 mps 740 mmHg 60%
17:00 +24°C° 0 mm 2 mps 740 mmHg 63%
18:00 +23°C° 0 mm 2 mps 740 mmHg 66%
19:00 +20°C° 0 mm 2 mps 740 mmHg 69%
20:00 +19°C° 0 mm 2 mps 740 mmHg 71%
21:00 +20°C° 0 mm 1 mps 740 mmHg 72%
22:00 +19°C° 0 mm 1 mps 741 mmHg 73%
23:00 +19°C° 0 mm 1 mps 741 mmHg 74%

19 August, Wednesday

Time Temperature Precipitation Wind Pressure Humidity
00:00 +19°C° 0.2 mm 1 mps 741 mmHg 77%
01:00 +19°C° 0.2 mm 1 mps 741 mmHg 81%
02:00 +18°C° 0.2 mm 1 mps 741 mmHg 85%
03:00 +18°C° 0 mm 1 mps 740 mmHg 85%
04:00 +18°C° 0 mm 1 mps 740 mmHg 85%
05:00 +18°C° 0 mm 1 mps 740 mmHg 84%
06:00 +19°C° 0 mm 1 mps 740 mmHg 80%
07:00 +21°C° 0 mm 1 mps 741 mmHg 75%
08:00 +22°C° 0 mm 1 mps 741 mmHg 70%
09:00 +23°C° 0.1 mm 2 mps 741 mmHg 67%
10:00 +23°C° 0.1 mm 2 mps 741 mmHg 64%
11:00 +24°C° 0.1 mm 2 mps 741 mmHg 61%
12:00 +23°C° 0.8 mm 2 mps 741 mmHg 70%
13:00 +20°C° 0.8 mm 3 mps 740 mmHg 80%
14:00 +19°C° 0.8 mm 3 mps 740 mmHg 89%
15:00 +18°C° 0.3 mm 3 mps 740 mmHg 90%
16:00 +18°C° 0.3 mm 2 mps 740 mmHg 90%
17:00 +18°C° 0.3 mm 2 mps 740 mmHg 91%
18:00 +18°C° 0.1 mm 2 mps 740 mmHg 91%
19:00 +17°C° 0.1 mm 2 mps 740 mmHg 90%
20:00 +17°C° 0.1 mm 3 mps 740 mmHg 90%
21:00 +17°C° 0 mm 3 mps 740 mmHg 90%
22:00 +17°C° 0 mm 4 mps 739 mmHg 90%
23:00 +17°C° 0 mm 4 mps 739 mmHg 90%

20 August, Thursday

Time Temperature Precipitation Wind Pressure Humidity
00:00 +17°C° 0.2 mm 4 mps 739 mmHg 91%
01:00 +17°C° 0.2 mm 4 mps 739 mmHg 92%
02:00 +17°C° 0.2 mm 4 mps 739 mmHg 92%
03:00 +16°C° 0 mm 5 mps 739 mmHg 93%
04:00 +16°C° 0 mm 5 mps 739 mmHg 93%
05:00 +16°C° 0 mm 5 mps 738 mmHg 93%
06:00 +17°C° 0.1 mm 5 mps 738 mmHg 92%
07:00 +17°C° 0.1 mm 5 mps 738 mmHg 91%
08:00 +17°C° 0.1 mm 6 mps 738 mmHg 89%
09:00 +20°C° 0 mm 5 mps 738 mmHg 84%
10:00 +21°C° 0 mm 5 mps 739 mmHg 79%
11:00 +22°C° 0 mm 4 mps 739 mmHg 75%
12:00 +22°C° 0 mm 4 mps 739 mmHg 72%
13:00 +23°C° 0 mm 4 mps 739 mmHg 69%
14:00 +25°C° 0 mm 4 mps 738 mmHg 66%
15:00 +25°C° 0 mm 3 mps 738 mmHg 68%
16:00 +24°C° 0 mm 3 mps 738 mmHg 70%
17:00 +24°C° 0 mm 3 mps 738 mmHg 72%
18:00 +22°C° 0.1 mm 3 mps 738 mmHg 74%
19:00 +23°C° 0.1 mm 2 mps 738 mmHg 77%
20:00 +21°C° 0.1 mm 2 mps 739 mmHg 79%
21:00 +20°C° 0.3 mm 2 mps 739 mmHg 82%
22:00 +20°C° 0.3 mm 2 mps 739 mmHg 84%
23:00 +19°C° 0.3 mm 3 mps 739 mmHg 87%
Show more